Weather in Eyn-Bokek

Israel     31°12′01″N   35°21′49″E
temp.,
°C
wind,
m/s
gust,
m/s
humid.,
%
clouds,
%
prec.,
mm/h
press.,
hPa
HPBL,
m
2 july, sat
sat200:00+26nw12450 0.0 1008231
03:00+24wsw11570 0.0 100844
06:00+22w22680 0.0 100841
09:00+25s12510 0.0 1009776
12:00+31se02290 0.0 10071598
15:00+34nw13240 0.0 10062117
18:00+32nw75290 0.0 10061495
21:00+28nw58410 0.0 1006288
3 july, sun
sun300:00+26w11450 0.0 100725
03:00+25w22480 0.0 100618
06:00+24w22500 0.0 100628
09:00+27wsw12400 0.0 1007689
12:00+32wnw24280 0.0 10051812
15:00+34wnw34230 0.0 10042343
18:00+33nw86260 0.0 10041569
21:00+28nw59380 0.0 1005262
4 july, mon
mon400:00+27nnw11410 0.0 100511
03:00+25w11410 0.0 100511
06:00+24w22430 0.0 100517
09:00+28w11350 0.0 1006634
12:00+33sw03250 0.0 10051727
15:00+35wsw23180 0.0 10032382
18:00+34wnw86220 0.0 10041559
21:00+30nw47320 0.0 1005185
5 july, tue
tue500:00+28nw11330 0.0 100611
03:00+26w33410 0.0 100628
06:00+24w33550 0.0 100733
09:00+28w12400 0.0 1007654
12:00+33wnw13240 0.0 10061989
15:00+35wnw34190 0.0 10042413
18:00+34wnw87210 0.0 10051595
21:00+29nw48340 0.0 1006225
6 july, wed
wed600:00+27nnw11320 0.0 100611
03:00+26w22360 0.0 100618
06:00+23w33550 0.0 100734
09:00+27w11410 0.0 1007642
12:00+32w13230 0.0 10071849
15:00+35w23180 0.0 10052485
18:00+33wnw86210 0.0 10051402
21:00+28wnw58320 0.0 1007188